NATO401 EGYM-EHEH

Flight info

Callsign NATO401
Flight time 0h 33m
Altitude 29000
Route BANEM DCT SONDO M183 REDFA
Aircraft VF35/M-SDRTUY/LB1

Departure

Time 2026-04-23 17:53
Airport RAF Marham (EGYM)

Arrival

Time 2026-04-23 18:26
Airport Eindhoven Airport (EHEH)
Time Latitude Longitude Altitude Speed Heading
2026-04-23 17:47 52.64054 0.54014 84 ft 0 kts 184°
2026-04-23 17:50 52.64049 0.54013 83 ft 4 kts 184°
2026-04-23 17:50 52.64003 0.53998 81 ft 2 kts 228°
2026-04-23 17:50 52.64004 0.53918 81 ft 9 kts 272°
2026-04-23 17:51 52.64009 0.53814 81 ft 9 kts 276°
2026-04-23 17:51 52.64014 0.53719 83 ft 8 kts 275°
2026-04-23 17:51 52.64027 0.53555 82 ft 7 kts 287°
2026-04-23 17:52 52.64045 0.53491 84 ft 6 kts 310°
2026-04-23 17:52 52.64145 0.53411 85 ft 10 kts 49°
2026-04-23 17:52 52.64200 0.53543 82 ft 64 kts 56°
2026-04-23 17:53 52.65869 0.57473 1918 ft 294 kts 55°
2026-04-23 17:53 52.67128 0.60535 4174 ft 345 kts 60°
2026-04-23 17:53 52.67718 0.64428 6625 ft 368 kts 95°
2026-04-23 17:54 52.66709 0.68304 8298 ft 387 kts 128°
2026-04-23 17:54 52.64615 0.71192 9966 ft 399 kts 144°
2026-04-23 17:54 52.59879 0.76368 13648 ft 419 kts 144°
2026-04-23 17:55 52.55615 0.82893 17335 ft 426 kts 117°
2026-04-23 17:55 52.54298 0.87385 19260 ft 439 kts 114°
2026-04-23 17:55 52.52979 0.91994 21085 ft 456 kts 121°
2026-04-23 17:56 52.51376 0.96429 23040 ft 461 kts 120°
2026-04-23 17:56 52.48280 1.06109 27084 ft 483 kts 122°
2026-04-23 17:56 52.46671 1.10911 28024 ft 496 kts 120°
2026-04-23 17:57 52.45060 1.15919 28824 ft 498 kts 121°
2026-04-23 17:57 52.43353 1.21028 29268 ft 523 kts 121°
2026-04-23 17:57 52.39837 1.31696 29442 ft 536 kts 121°
2026-04-23 17:58 52.38044 1.37062 29452 ft 541 kts 121°
2026-04-23 17:58 52.34282 1.47679 29477 ft 532 kts 131°
2026-04-23 17:59 52.29110 1.56297 29481 ft 532 kts 144°
2026-04-23 17:59 52.23072 1.63321 29458 ft 533 kts 143°
2026-04-23 18:00 52.17152 1.70609 29439 ft 533 kts 144°
2026-04-23 18:00 52.11245 1.77893 29427 ft 533 kts 141°
2026-04-23 18:00 52.08779 1.82398 29487 ft 538 kts 124°
2026-04-23 18:01 52.07255 1.87974 29526 ft 547 kts 107°
2026-04-23 18:01 52.06818 1.94154 29556 ft 557 kts 90°
2026-04-23 18:01 52.07435 2.00426 29532 ft 565 kts 79°
2026-04-23 18:02 52.09413 2.12801 29442 ft 563 kts 79°
2026-04-23 18:02 52.10648 2.25270 29442 ft 556 kts 91°
2026-04-23 18:03 52.11009 2.37767 29435 ft 558 kts 88°
2026-04-23 18:03 52.10556 2.50153 29475 ft 548 kts 108°
2026-04-23 18:04 52.07992 2.61747 29449 ft 542 kts 119°
2026-04-23 18:04 52.04769 2.72835 29432 ft 543 kts 116°
2026-04-23 18:05 52.01607 2.83974 29416 ft 543 kts 116°
2026-04-23 18:05 51.98461 2.95128 29100 ft 546 kts 117°
2026-04-23 18:05 51.96892 3.00696 28322 ft 540 kts 116°
2026-04-23 18:06 51.95355 3.06242 27527 ft 536 kts 116°
2026-04-23 18:06 51.93843 3.11733 26768 ft 531 kts 115°
2026-04-23 18:06 51.92505 3.17285 26034 ft 528 kts 106°
2026-04-23 18:06 51.91676 3.22985 25325 ft 523 kts 103°
2026-04-23 18:07 51.90946 3.28734 24626 ft 519 kts 103°
2026-04-23 18:07 51.90258 3.34434 23909 ft 513 kts 102°
2026-04-23 18:07 51.89588 3.40080 23084 ft 507 kts 102°
2026-04-23 18:07 51.88920 3.45695 22285 ft 505 kts 102°
2026-04-23 18:08 51.88476 3.49379 21768 ft 503 kts 102°
2026-04-23 18:08 51.87564 3.56785 20747 ft 499 kts 102°
2026-04-23 18:08 51.86872 3.62271 20012 ft 496 kts 102°
2026-04-23 18:08 51.86167 3.67730 19284 ft 493 kts 102°
2026-04-23 18:09 51.85410 3.73478 18570 ft 578 kts 102°
2026-04-23 18:09 51.84542 3.79944 17744 ft 569 kts 102°
2026-04-23 18:09 51.83703 3.86060 16967 ft 562 kts 102°
2026-04-23 18:09 51.82846 3.92177 16220 ft 554 kts 102°
2026-04-23 18:10 51.81985 3.98214 15478 ft 548 kts 102°
2026-04-23 18:10 51.81118 4.04173 14764 ft 542 kts 102°
2026-04-23 18:10 51.80245 4.10088 14040 ft 538 kts 102°
2026-04-23 18:10 51.79370 4.15937 13252 ft 532 kts 102°
2026-04-23 18:11 51.78499 4.21701 12484 ft 526 kts 102°
2026-04-23 18:11 51.77653 4.27239 11748 ft 479 kts 102°
2026-04-23 18:11 51.76890 4.32146 11026 ft 428 kts 102°
2026-04-23 18:11 51.76183 4.36629 10320 ft 399 kts 102°
2026-04-23 18:12 51.75497 4.40966 9540 ft 396 kts 102°
2026-04-23 18:12 51.74822 4.45230 8775 ft 387 kts 102°
2026-04-23 18:12 51.74179 4.49270 8054 ft 360 kts 102°
2026-04-23 18:12 51.73577 4.53024 7660 ft 328 kts 103°
2026-04-23 18:13 51.73008 4.56533 7502 ft 291 kts 102°
2026-04-23 18:13 51.72536 4.59392 7442 ft 279 kts 102°
2026-04-23 18:13 51.72043 4.62388 7409 ft 277 kts 102°
2026-04-23 18:13 51.71547 4.65385 7390 ft 275 kts 102°
2026-04-23 18:14 51.71050 4.68368 7382 ft 273 kts 102°
2026-04-23 18:14 51.70564 4.71286 7383 ft 275 kts 102°
2026-04-23 18:14 51.70069 4.74252 7390 ft 274 kts 102°
2026-04-23 18:14 51.69571 4.77233 7386 ft 274 kts 103°
2026-04-23 18:15 51.69073 4.80202 7385 ft 276 kts 102°
2026-04-23 18:15 51.68575 4.83186 7387 ft 275 kts 102°
2026-04-23 18:15 51.68100 4.86174 7383 ft 275 kts 98°
2026-04-23 18:15 51.67801 4.89204 7388 ft 274 kts 94°
2026-04-23 18:16 51.67578 4.92272 7389 ft 273 kts 93°
2026-04-23 18:16 51.67360 4.95321 7390 ft 276 kts 96°
2026-04-23 18:16 51.66965 4.98338 7384 ft 276 kts 105°
2026-04-23 18:17 51.65442 5.04068 7376 ft 278 kts 111°
2026-04-23 18:17 51.64736 5.06970 7379 ft 278 kts 108°
2026-04-23 18:17 51.64037 5.09860 6800 ft 276 kts 108°
2026-04-23 18:17 51.63419 5.12783 6392 ft 270 kts 102°
2026-04-23 18:18 51.62944 5.15731 6159 ft 272 kts 110°
2026-04-23 18:18 51.61761 5.18105 6108 ft 282 kts 144°
2026-04-23 18:18 51.59916 5.19135 6092 ft 286 kts 173°
2026-04-23 18:18 51.57959 5.19187 6052 ft 284 kts 187°
2026-04-23 18:19 51.56004 5.18610 6064 ft 285 kts 193°
2026-04-23 18:19 51.54074 5.17874 6103 ft 283 kts 192°
2026-04-23 18:19 51.52119 5.17346 6183 ft 285 kts 188°
2026-04-23 18:19 51.50149 5.16864 6077 ft 286 kts 189°
2026-04-23 18:20 51.48215 5.16297 5693 ft 269 kts 190°
2026-04-23 18:20 51.46333 5.15751 5333 ft 270 kts 189°
2026-04-23 18:20 51.44488 5.15257 5003 ft 269 kts 189°
2026-04-23 18:20 51.42634 5.14749 4688 ft 270 kts 189°
2026-04-23 18:21 51.40789 5.14316 4218 ft 268 kts 180°
2026-04-23 18:21 51.38999 5.14837 3591 ft 263 kts 154°
2026-04-23 18:21 51.37451 5.16307 2941 ft 258 kts 140°
2026-04-23 18:21 51.36162 5.18051 2311 ft 236 kts 133°
2026-04-23 18:22 51.35046 5.19890 1919 ft 233 kts 127°
2026-04-23 18:22 51.34053 5.21893 1963 ft 229 kts 116°
2026-04-23 18:22 51.33672 5.24270 2040 ft 221 kts 81°
2026-04-23 18:22 51.34513 5.26054 1790 ft 209 kts 30°
2026-04-23 18:23 51.35337 5.26885 1886 ft 211 kts 32°
2026-04-23 18:23 51.37903 5.29664 1491 ft 157 kts 31°
2026-04-23 18:24 51.39682 5.31544 1119 ft 155 kts 33°
2026-04-23 18:24 51.40552 5.32476 1008 ft 147 kts 33°
2026-04-23 18:24 51.41382 5.33435 800 ft 150 kts 33°
2026-04-23 18:25 51.43201 5.35411 344 ft 166 kts 34°
2026-04-23 18:25 51.44125 5.36461 109 ft 138 kts 32°
2026-04-23 18:25 51.44701 5.37102 73 ft 75 kts 35°
2026-04-23 18:25 51.45083 5.37529 71 ft 62 kts 36°
2026-04-23 18:26 51.45401 5.37884 76 ft 55 kts 34°
2026-04-23 18:26 51.45710 5.38234 75 ft 49 kts 34°
2026-04-23 18:26 51.45852 5.38386 74 ft 17 kts 32°
2026-04-23 18:26 51.45953 5.38412 74 ft 15 kts 315°
2026-04-23 18:27 51.45989 5.38336 68 ft 0 kts 304°
2026-04-23 18:28 51.46003 5.38296 76 ft 5 kts 275°
2026-04-23 18:29 51.45960 5.38232 76 ft 15 kts 215°
2026-04-23 18:29 51.45863 5.38123 71 ft 18 kts 215°
2026-04-23 18:29 51.45798 5.38050 74 ft 16 kts 214°
2026-04-23 18:29 51.45638 5.37872 73 ft 21 kts 215°
2026-04-23 18:30 51.45524 5.37745 72 ft 20 kts 214°
2026-04-23 18:30 51.45389 5.37590 79 ft 28 kts 216°
2026-04-23 18:30 51.45276 5.37460 77 ft 4 kts 226°
2026-04-23 18:30 51.45292 5.37383 75 ft 12 kts 307°
2026-04-23 18:31 51.45348 5.37334 75 ft 9 kts 32°
2026-04-23 18:31 51.45399 5.37396 77 ft 8 kts 47°
2026-04-23 18:31 51.45392 5.37440 72 ft 0 kts 126°